Location: Unspecified
(37.0902°N, 0.0000°E)
Time: 19:12:02
(UTC+00:00)

SEEDS - Visible Passes

Search period start: 04 April 2026 00:00
Search period end: 14 April 2026 00:00
Orbit: 475 x 477 km, 97.8° (Epoch: 28 March)

Date Brightness Start Highest point End Pass type
(mag) Time Alt. Az. Time Alt. Az. Time Alt. Az.
4 Apr ? 04:42:44 10° NE 04:45:33 22° E 04:48:20 10° SSE visible
7 Apr ? 04:53:49 10° NE 04:56:59 30° E 05:00:07 10° SSE visible
8 Apr ? 04:27:42 10° ENE 04:29:29 13° E 04:31:16 10° SE visible
10 Apr ? 05:04:38 10° NNE 05:08:01 42° E 05:11:23 10° S visible
11 Apr ? 04:37:57 10° NE 04:40:28 18° E 04:42:56 10° SE visible
